timestamp,surface_pressure_avg,surface_temp_avg,battery_voltage,lat,long
2018-03-05 00:00:00+00:00,327.3047,1.5,12.89,47.84626,-54.09684
2018-03-05 00:10:00+00:00,333.7229,1.5,12.81,47.84626,-54.09684
2018-03-05 00:20:00+00:00,342.5696,1.5,12.89,47.84626,-54.09684
2018-03-05 00:30:00+00:00,350.1562,1.5,12.89,47.84626,-54.09684
2018-03-05 00:40:00+00:00,353.5612,1.55,12.97,47.84626,-54.09684
2018-03-05 00:50:00+00:00,356.3896,1.6,12.97,47.84626,-54.09684
2018-03-05 01:00:00+00:00,361.2764,1.63,12.89,47.84626,-54.09684
2018-03-05 01:10:00+00:00,363.8596,1.62,12.81,47.84626,-54.09684
2018-03-05 01:20:00+00:00,364.7229,1.6,12.89,47.84626,-54.09684
2018-03-05 01:30:00+00:00,365.7363,1.6,12.89,47.84626,-54.09684
2018-03-05 01:40:00+00:00,365.8263,1.6,12.89,47.84626,-54.09684
2018-03-05 01:50:00+00:00,364.2096,1.6,12.97,47.84626,-54.09684
2018-03-05 02:00:00+00:00,362.8663,1.6,12.89,47.84626,-54.09684
2018-03-05 02:10:00+00:00,361.2047,1.6,12.81,47.84626,-54.09684
2018-03-05 02:20:00+00:00,359.3862,1.6,12.89,47.84626,-54.09684
2018-03-05 02:30:00+00:00,358.0729,1.5,12.89,47.84626,-54.09684
2018-03-05 02:40:00+00:00,356.6979,1.49,12.89,47.84626,-54.09684
2018-03-05 02:50:00+00:00,355.1729,1.5,12.89,47.84626,-54.09684
2018-03-05 03:00:00+00:00,350.7096,1.5,12.81,47.84626,-54.09684
2018-03-05 03:10:00+00:00,345.8245,1.49,12.81,47.84626,-54.09684
2018-03-05 03:20:00+00:00,342.1329,1.49,12.89,47.84626,-54.09684
2018-03-05 03:30:00+00:00,338.1296,1.5,12.89,47.84626,-54.09684
2018-03-05 03:40:00+00:00,332.7596,1.5,12.89,47.84626,-54.09684
2018-03-05 03:50:00+00:00,326.6297,1.49,12.89,47.84626,-54.09684
2018-03-05 04:00:00+00:00,320.2531,1.49,12.81,47.84626,-54.09684
2018-03-05 04:10:00+00:00,314.5663,1.49,12.81,47.84626,-54.09684
2018-03-05 04:20:00+00:00,305.783,1.49,12.89,47.84626,-54.09684
2018-03-05 04:30:00+00:00,296.568,1.5,12.89,47.84626,-54.09684
2018-03-05 04:40:00+00:00,287.568,1.5,12.89,47.84626,-54.09684
2018-03-05 04:50:00+00:00,279.8564,1.49,12.89,47.84626,-54.09684
2018-03-05 05:00:00+00:00,270.2264,1.6,12.81,47.84626,-54.09684
2018-03-05 05:10:00+00:00,258.5947,1.5,12.81,47.84626,-54.09684
2018-03-05 05:20:00+00:00,249.743,1.5,12.89,47.84626,-54.09684
2018-03-05 05:30:00+00:00,241.1431,1.5,12.81,47.84626,-54.09684
2018-03-05 05:40:00+00:00,230.2548,1.5,12.89,47.84626,-54.09684
2018-03-05 05:50:00+00:00,220.4064,1.5,12.89,47.84626,-54.09684
2018-03-05 06:00:00+00:00,214.8397,1.5,12.81,47.84626,-54.09684
2018-03-05 06:10:00+00:00,205.9398,1.5,12.73,47.84626,-54.09684
2018-03-05 06:20:00+00:00,192.5965,1.6,12.81,47.84626,-54.09684
2018-03-05 06:30:00+00:00,185.6797,1.6,12.81,47.84626,-54.09684
2018-03-05 06:40:00+00:00,184.5581,1.6,12.89,47.84626,-54.09684
2018-03-05 06:50:00+00:00,179.4648,1.58,12.89,47.84626,-54.09684
2018-03-05 07:00:00+00:00,171.9381,1.6,12.81,47.84626,-54.09684
2018-03-05 07:10:00+00:00,169.7015,1.59,12.73,47.84626,-54.09684
2018-03-05 07:20:00+00:00,170.6181,1.59,12.81,47.84626,-54.09684
2018-03-05 07:30:00+00:00,169.8215,1.6,12.81,47.84626,-54.09684
2018-03-05 07:40:00+00:00,170.0465,1.5,12.81,47.84626,-54.09684
2018-03-05 07:50:00+00:00,171.2365,1.5,12.89,47.84626,-54.09684
2018-03-05 08:00:00+00:00,172.9882,1.5,12.81,47.84626,-54.09684
2018-03-05 08:10:00+00:00,177.0765,1.5,12.73,47.84626,-54.09684
2018-03-05 08:20:00+00:00,180.8848,1.5,12.81,47.84626,-54.09684
2018-03-05 08:30:00+00:00,185.4065,1.5,12.81,47.84626,-54.09684
2018-03-05 08:40:00+00:00,192.5131,1.5,12.81,47.84626,-54.09684
2018-03-05 08:50:00+00:00,197.8464,1.5,12.81,47.84626,-54.09684
2018-03-05 09:00:00+00:00,204.0681,1.5,12.81,47.84626,-54.09684
2018-03-05 09:10:00+00:00,209.2681,1.5,12.73,47.84626,-54.09684
2018-03-05 09:20:00+00:00,212.2414,1.5,12.81,47.84626,-54.09684
2018-03-05 09:30:00+00:00,216.5265,1.5,12.81,47.84626,-54.09684
2018-03-05 09:40:00+00:00,219.9748,1.5,12.81,47.84626,-54.09684
2018-03-05 09:50:00+00:00,222.8698,1.5,12.81,47.84626,-54.09684
2018-03-05 10:00:00+00:00,225.4598,1.5,12.81,47.84626,-54.09684
2018-03-05 10:10:00+00:00,228.6864,1.5,12.73,47.84626,-54.09684
2018-03-05 10:20:00+00:00,232.3164,1.5,12.81,47.84626,-54.09684
2018-03-05 10:30:00+00:00,237.0348,1.5,12.81,47.84626,-54.09684
2018-03-05 10:40:00+00:00,244.7048,1.5,12.81,47.84626,-54.09684
2018-03-05 10:50:00+00:00,250.2681,1.5,12.81,47.84626,-54.09684
2018-03-05 11:00:00+00:00,256.1214,1.5,12.81,47.84626,-54.09684
2018-03-05 11:10:00+00:00,262.9881,1.5,12.73,47.84626,-54.09684
2018-03-05 11:20:00+00:00,272.1481,1.5,12.81,47.84626,-54.09684
2018-03-05 11:30:00+00:00,277.963,1.5,12.81,47.84626,-54.09684
2018-03-05 11:40:00+00:00,285.0731,1.5,12.81,47.84626,-54.09684
2018-03-05 11:50:00+00:00,293.6714,1.48,12.89,47.84626,-54.09684
2018-03-05 12:00:00+00:00,300.6947,1.48,12.81,47.84626,-54.09684
2018-03-05 12:10:00+00:00,306.7363,1.4,12.81,47.84626,-54.09684
2018-03-05 12:20:00+00:00,317.5063,1.39,12.97,47.84626,-54.09684
2018-03-05 12:30:00+00:00,327.1346,1.37,13.05,47.84626,-54.09684
2018-03-05 12:40:00+00:00,332.223,1.4,13.05,47.84626,-54.09684
2018-03-05 12:50:00+00:00,339.1114,1.35,13.13,47.84626,-54.09684
2018-03-05 13:00:00+00:00,347.9948,1.32,13.13,47.84626,-54.09684
2018-03-05 13:10:00+00:00,352.4063,1.37,13.05,47.84626,-54.09684
2018-03-05 13:20:00+00:00,352.5062,1.4,13.21,47.84626,-54.09684
2018-03-05 13:30:00+00:00,358.2446,1.37,13.21,47.84626,-54.09684
2018-03-05 13:40:00+00:00,363.7313,1.38,13.29,47.84626,-54.09684
2018-03-05 13:50:00+00:00,364.1447,1.4,13.29,47.84626,-54.09684
2018-03-05 14:00:00+00:00,365.1346,1.4,13.29,47.84626,-54.09684
2018-03-05 14:10:00+00:00,367.9562,1.4,13.21,47.84626,-54.09684
2018-03-05 14:20:00+00:00,366.2612,1.4,13.29,47.84626,-54.09684
2018-03-05 14:30:00+00:00,365.3129,1.4,13.29,47.84626,-54.09684
2018-03-05 14:40:00+00:00,365.8563,1.4,13.37,47.84626,-54.09684
2018-03-05 14:50:00+00:00,364.5212,1.4,13.44,47.84626,-54.09684
2018-03-05 15:00:00+00:00,360.0413,1.4,13.44,47.84626,-54.09684
2018-03-05 15:10:00+00:00,360.5363,1.4,13.37,47.84626,-54.09684
2018-03-05 15:20:00+00:00,359.1129,1.4,13.6,47.84626,-54.09684
2018-03-05 15:30:00+00:00,353.1929,1.4,13.68,47.84626,-54.09684
2018-03-05 15:40:00+00:00,347.8846,1.4,13.76,47.84626,-54.09684
2018-03-05 15:50:00+00:00,346.0579,1.4,13.84,47.84626,-54.09684
2018-03-05 16:00:00+00:00,339.7363,1.41,13.92,47.84626,-54.09684
2018-03-05 16:10:00+00:00,334.2363,1.47,13.6,47.84626,-54.09684
2018-03-05 16:20:00+00:00,328.6296,1.46,13.53,47.84626,-54.09684
2018-03-05 16:30:00+00:00,320.843,1.47,13.68,47.84626,-54.09684
2018-03-05 16:40:00+00:00,311.7047,1.48,13.68,47.84626,-54.09684
2018-03-05 16:50:00+00:00,303.9897,1.49,13.68,47.84626,-54.09684
2018-03-05 17:00:00+00:00,296.003,1.58,13.37,47.84626,-54.09684
2018-03-05 17:10:00+00:00,285.1481,1.5,13.29,47.84626,-54.09684
2018-03-05 17:20:00+00:00,275.2081,1.62,13.29,47.84626,-54.09684
2018-03-05 17:30:00+00:00,264.1448,1.64,13.29,47.84626,-54.09684
2018-03-05 17:40:00+00:00,253.6631,1.5,13.29,47.84626,-54.09684
2018-03-05 17:50:00+00:00,245.0531,1.65,13.29,47.84626,-54.09684
2018-03-05 18:00:00+00:00,232.4498,1.5,13.21,47.84626,-54.09684
2018-03-05 18:10:00+00:00,219.5548,1.5,13.05,47.84626,-54.09684
2018-03-05 18:20:00+00:00,212.6564,1.5,13.13,47.84626,-54.09684
2018-03-05 18:30:00+00:00,205.2214,1.58,13.13,47.84626,-54.09684
2018-03-05 18:40:00+00:00,196.0231,1.8,13.13,47.84626,-54.09684
2018-03-05 18:50:00+00:00,190.0948,1.8,13.13,47.84626,-54.09684
2018-03-05 19:00:00+00:00,186.7498,1.79,13.05,47.84626,-54.09684
2018-03-05 19:10:00+00:00,181.3731,1.8,12.97,47.84626,-54.09684
2018-03-05 19:20:00+00:00,177.5431,1.8,13.05,47.84626,-54.09684
2018-03-05 19:30:00+00:00,177.5498,1.7,13.05,47.84626,-54.09684
2018-03-05 19:40:00+00:00,175.8048,1.76,13.05,47.84626,-54.09684
2018-03-05 19:50:00+00:00,172.8915,1.8,13.05,47.84626,-54.09684
2018-03-05 20:00:00+00:00,176.8282,1.7,12.97,47.84626,-54.09684
2018-03-05 20:10:00+00:00,182.4031,1.68,12.89,47.84626,-54.09684
2018-03-05 20:20:00+00:00,182.5848,1.8,12.97,47.84626,-54.09684
2018-03-05 20:30:00+00:00,184.4348,1.8,12.97,47.84626,-54.09684
2018-03-05 20:40:00+00:00,189.5515,1.75,12.97,47.84626,-54.09684
2018-03-05 20:50:00+00:00,194.3648,1.78,12.97,47.84626,-54.09684
2018-03-05 21:00:00+00:00,201.1548,1.79,12.89,47.84626,-54.09684
2018-03-05 21:10:00+00:00,206.3515,1.7,12.89,47.84626,-54.09684
2018-03-05 21:20:00+00:00,210.9164,1.7,12.97,47.84626,-54.09684
2018-03-05 21:30:00+00:00,217.4531,1.7,12.97,47.84626,-54.09684
2018-03-05 21:40:00+00:00,224.1397,1.7,12.97,47.84626,-54.09684
2018-03-05 21:50:00+00:00,229.3814,1.69,12.97,47.84626,-54.09684
2018-03-05 22:00:00+00:00,233.5198,1.66,12.89,47.84626,-54.09684
2018-03-05 22:10:00+00:00,240.2314,1.67,12.81,47.84626,-54.09684
2018-03-05 22:20:00+00:00,246.0031,1.69,12.89,47.84626,-54.09684
2018-03-05 22:30:00+00:00,247.9247,1.69,12.89,47.84626,-54.09684
2018-03-05 22:40:00+00:00,249.1947,1.69,12.97,47.84626,-54.09684
2018-03-05 22:50:00+00:00,254.1697,1.69,12.97,47.84626,-54.09684
2018-03-05 23:00:00+00:00,259.093,1.68,12.89,47.84626,-54.09684
2018-03-05 23:10:00+00:00,261.8664,1.69,12.81,47.84626,-54.09684
2018-03-05 23:20:00+00:00,265.4997,1.69,12.89,47.84626,-54.09684
2018-03-05 23:30:00+00:00,272.4014,1.7,12.89,47.84626,-54.09684
2018-03-05 23:40:00+00:00,280.3797,1.68,12.89,47.84626,-54.09684
2018-03-05 23:50:00+00:00,287.328,1.67,12.89,47.84626,-54.09684
